Location: Gleizolles
(44.4833°N, 6.7667°E)
Time: 11:47:46
(UTC+00:00)

Envisat - Pass Details

Date: 14 December 2021
Orbit: 764 x 766 km, 98.2° (Epoch: 20 January)

Event Time Altitude Azimuth Distance (km) Brightness Sun altitude
Rises 04:19:35 0° 16° (NNE) 3,242 6.4 -27.9°
Reaches altitude 10° 04:21:56 10° 20° (NNE) 2,311 5.6 -27.5°
Maximum altitude 04:26:59 62° 101° (E) 863 3.4 -26.6°
Drops below altitude 10° 04:31:59 10° 182° (S) 2,293 5.5 -25.7°
Sets 04:34:18 0° 186° (S) 3,215 6.3 -25.3°
